[[{"header":{"parameterUnit":"m.s-1","parameterCategory":1,"la1":30.2991,"la2":30.254,"lo1":-89.0895,"lo2":-89.0444,"dy":0.0017,"dx":0.0017,"nx":28,"ny":28,"refTime":"2023-10-04T21:00:00:Z","depth":0,"parameterNumber":2,"parameterNumberName":"U-component_of_WINDS"},"data":[0,0,0,0,0,0,0,0,0,0,0,0,0,0,0,0,0,0,0,0,0,0,0,0,0,0,0,0,0,0,0,0,0,0,0,0,0,0,0,0,0,0,0,0,0,0,0,0,0,0,0,0,0,0,0,0,0,0,-0.2105,-0.2107,0,-0.2315,-0.2318,-0.232,-0.2462,-0.2463,-0.2464,-0.2465,-0.2689,-0.2694,-0.2699,0,0,0,0,0,0,0,0,0,0,0,0,0,-0.1836,-0.184,-0.2105,-0.2107,-0.211,-0.2315,-0.2318,-0.2321,-0.2462,-0.2463,-0.2464,-0.2465,-0.2687,-0.2693,-0.2699,0,0,0,0,0,0,0,0,0,0,0,0,0,-0.199,-0.1841,-0.2104,-0.2205,-0.2216,-0.2314,-0.2318,-0.2322,-0.2461,-0.2463,-0.2464,-0.2466,-0.2685,-0.2693,-0.27,-0.2718,0,0,-0.2723,-0.2727,0,0,0,0,0,0,0,0,-0.1981,-0.2,-0.2187,-0.2198,-0.2211,-0.2364,-0.2305,-0.2455,-0.2461,-0.2368,-0.2465,-0.2466,-0.258,-0.2596,-0.2633,-0.2728,-0.2738,-0.2724,-0.2729,-0.2732,-0.2734,0,0,0,0,0,0,0,-0.197,-0.1992,-0.2188,-0.219,-0.2204,-0.2243,-0.2266,-0.2334,-0.2464,-0.2377,-0.2387,-0.241,-0.2587,-0.2625,-0.2639,-0.2741,-0.2724,-0.2731,-0.2735,-0.2738,-0.2867,-0.2866,0,0,0,0,0,0,-0.1942,-0.1982,-0.2182,-0.2195,-0.2097,-0.2247,-0.2273,-0.2313,-0.2463,-0.2488,-0.2408,-0.2416,-0.2612,-0.263,-0.2648,-0.2681,-0.2732,-0.2739,-0.2743,-0.2868,-0.2867,-0.2865,0,0,0,0,0,0,-0.1936,-0.1959,-0.2173,-0.2091,-0.2121,-0.225,-0.2294,-0.2317,-0.2355,-0.2487,-0.2512,-0.2423,-0.2614,-0.2637,-0.27,-0.269,-0.2742,-0.2749,-0.2869,-0.2868,-0.2866,-0.2744,0,0,0,0,0,0,-0.1928,-0.1955,-0.1961,-0.209,-0.2125,-0.2218,-0.2293,-0.232,-0.2367,-0.2378,-0.2508,-0.2531,-0.2616,-0.2688,-0.2707,-0.2702,-0.2755,-0.2871,-0.2869,-0.2867,-0.275,-0.2738,-0.2729,0,0,0,0,0,-0.1917,-0.1919,-0.196,-0.1983,-0.2134,-0.2217,-0.2237,-0.2333,-0.2365,-0.2374,-0.2459,-0.2527,-0.2688,-0.2693,-0.2716,-0.2712,-0.2872,-0.2869,-0.2867,-0.2754,-0.2741,-0.2729,0,0,0,0,0,0,-0.1787,-0.1938,-0.1985,-0.2028,-0.2108,-0.224,-0.2253,-0.2315,-0.239,-0.2398,-0.2518,-0.2546,-0.2597,-0.2662,-0.2664,-0.274,-0.2789,-0.279,-0.2695,-0.2683,-0.2673,-0.2656,-0.2762,0,0,0,0,0,-0.1763,-0.1815,-0.1945,-0.1971,-0.2008,-0.2123,-0.2163,-0.223,-0.232,-0.2355,-0.2445,-0.2532,-0.2603,-0.2647,-0.2719,-0.2761,-0.2793,-0.277,-0.276,-0.2751,-0.2751,-0.2781,-0.2773,-0.2857,-0.2857,-0.2857,0,0,-0.1715,-0.1803,-0.1829,-0.1947,-0.2017,-0.2071,-0.2151,-0.2205,-0.2247,-0.2365,-0.2428,-0.2498,-0.2603,-0.2655,-0.2683,-0.2711,-0.2735,-0.2747,-0.2739,-0.2745,-0.2777,-0.2769,-0.2762,-0.2855,-0.2855,-0.2856,0,0,-0.1654,-0.1725,-0.1755,-0.1823,-0.1928,-0.2005,-0.2012,-0.2136,-0.2186,-0.2252,-0.2342,-0.2397,-0.2515,-0.2587,-0.2639,-0.2609,-0.2675,-0.263,-0.2576,-0.2603,-0.2597,-0.2591,-0.2582,-0.2577,-0.263,-0.263,-0.263,0,-0.158,-0.1662,-0.1763,-0.1811,-0.1862,-0.1969,-0.2003,-0.2066,-0.219,-0.2224,-0.2253,-0.2406,-0.2484,-0.2556,-0.2549,-0.2587,-0.2602,-0.2615,-0.2589,-0.2585,-0.2581,-0.2574,-0.257,-0.2624,-0.2624,-0.2625,-0.2625,0,-0.1569,-0.1624,-0.1637,-0.1751,-0.1804,-0.1844,-0.1955,-0.1997,-0.2061,-0.2136,-0.2204,-0.2302,-0.2397,-0.242,-0.2484,-0.2502,-0.2517,-0.2566,-0.2617,-0.2565,-0.2561,-0.2558,-0.2615,-0.2617,-0.2619,-0.262,0,0,-0.1429,-0.16,-0.1603,-0.1657,-0.1782,-0.1829,-0.1877,-0.1968,-0.2002,-0.2086,-0.2131,-0.223,-0.2277,-0.2336,-0.241,-0.2434,-0.2406,-0.2481,-0.2486,-0.2464,-0.2436,-0.2397,-0.2392,-0.2451,-0.2451,-0.2451,-0.2427,0,-0.1387,-0.1474,-0.1568,-0.1624,-0.1678,-0.1783,-0.1826,-0.1909,-0.1982,-0.2042,-0.2125,-0.2193,-0.2249,-0.2286,-0.2314,-0.2403,-0.2402,-0.2406,-0.2497,-0.2499,-0.2466,-0.239,-0.2349,-0.2322,-0.2426,-0.2426,-0.2426,0,-0.1349,-0.1425,-0.1485,-0.1607,-0.1634,-0.1669,-0.1762,-0.1817,-0.1916,-0.1968,-0.2034,-0.2113,-0.2173,-0.2218,-0.2304,-0.2305,-0.2349,-0.2398,-0.24,-0.2412,-0.2458,-0.24,-0.2315,-0.2311,-0.2424,-0.2424,-0.2424,0,-0.1242,-0.136,-0.1412,-0.1455,-0.1599,-0.1622,-0.1683,-0.1783,-0.1833,-0.1916,-0.195,-0.2039,-0.2088,-0.2157,-0.2259,-0.2282,-0.2335,-0.2388,-0.2383,-0.238,-0.2388,-0.2386,-0.2309,-0.2416,-0.2416,-0.2416,-0.2416,0,-0.1185,-0.1218,-0.1365,-0.1397,-0.1439,-0.1549,-0.1589,-0.1661,-0.1749,-0.18,-0.1898,-0.1944,-0.2076,-0.2139,-0.222,-0.2281,-0.2302,-0.2348,-0.2369,-0.2339,-0.2333,-0.2369,-0.2373,-0.2415,-0.2415,-0.2416,-0.2416,0,-0.1071,-0.1171,-0.1235,-0.1366,-0.14,-0.1425,-0.1539,-0.1577,-0.1656,-0.1719,-0.1741,-0.1866,-0.1946,-0.2055,-0.2169,-0.2224,-0.2274,-0.2308,-0.2239,-0.2252,-0.224,-0.224,-0.2183,-0.2182,-0.2288,-0.2287,-0.2286,0,-0.1028,-0.1055,-0.1189,-0.1229,-0.1287,-0.1349,-0.14,-0.1512,-0.1561,-0.1678,-0.1702,-0.1789,-0.1864,-0.1988,-0.2092,-0.2181,-0.2217,-0.2191,-0.2231,-0.2201,-0.2218,-0.2214,-0.2219,-0.2181,-0.2179,-0.2178,-0.2177,0,-0.0941,-0.0989,-0.1057,-0.1143,-0.12,-0.1274,-0.1352,-0.138,-0.151,-0.1561,-0.1643,-0.1701,-0.1818,-0.1904,-0.2007,-0.2076,-0.2149,-0.2163,-0.2167,-0.2136,-0.2095,-0.2118,-0.2213,-0.2164,-0.2165,-0.2166,-0.2167,-0.2167,-0.0862,-0.0892,-0.0991,-0.1065,-0.1135,-0.1207,-0.1248,-0.1333,-0.1402,-0.1503,-0.1566,-0.1645,-0.1749,-0.1894,-0.196,-0.2027,-0.2055,-0.206,-0.2061,-0.2061,-0.2051,-0.2085,-0.2046,-0.2047,-0.2047,-0.2047,-0.2048,0,-0.0781,-0.085,-0.0916,-0.1022,-0.1081,-0.1142,-0.1233,-0.1279,-0.1346,-0.1435,-0.1507,-0.1602,-0.1687,-0.1798,-0.1893,-0.1925,-0.1961,-0.1946,-0.1944,-0.196,-0.2019,-0.2007,-0.1915,-0.1915,-0.1915,-0.1915,-0.1915,-0.1915,-0.0745,-0.0799,-0.086,-0.0953,-0.1024,-0.11,-0.1147,-0.1215,-0.1286,-0.1387,-0.1457,-0.1528,-0.1628,-0.173,-0.1812,-0.1844,-0.1874,-0.1848,-0.189,-0.1943,-0.1955,-0.1966,-0.1955,-0.1854,-0.1854,-0.1825,-0.1824,-0.1824]},{"header":{"parameterUnit":"m.s-1","parameterCategory":1,"la1":30.2991,"la2":30.254,"lo1":-89.0895,"lo2":-89.0444,"dy":0.0017,"dx":0.0017,"nx":28,"ny":28,"refTime":"2023-10-04T21:00:00:Z","depth":0,"parameterNumber":3,"parameterNumberName":"V-component_of_WINDS"},"data":[0,0,0,0,0,0,0,0,0,0,0,0,0,0,0,0,0,0,0,0,0,0,0,0,0,0,0,0,0,0,0,0,0,0,0,0,0,0,0,0,0,0,0,0,0,0,0,0,0,0,0,0,0,0,0,0,0,0,5.2783,5.2784,0,5.2881,5.2882,5.2883,5.2815,5.2812,5.2809,5.2806,5.2899,5.2904,5.2909,0,0,0,0,0,0,0,0,0,0,0,0,0,5.2529,5.2534,5.2783,5.2784,5.2786,5.2881,5.2882,5.2884,5.2816,5.2812,5.2808,5.2805,5.2897,5.2903,5.291,0,0,0,0,0,0,0,0,0,0,0,0,0,5.2634,5.2536,5.2783,5.2763,5.2763,5.2881,5.2882,5.2884,5.2816,5.2812,5.2807,5.2803,5.2895,5.2903,5.291,5.3051,0,0,5.2935,5.2938,0,0,0,0,0,0,0,0,5.2628,5.2644,5.2765,5.2765,5.2764,5.2831,5.2826,5.294,5.2818,5.2796,5.2806,5.2801,5.2879,5.2888,5.2916,5.3055,5.3059,5.2935,5.294,5.2944,5.2946,0,0,0,0,0,0,0,5.2621,5.2639,5.2821,5.2767,5.2766,5.2747,5.2757,5.2848,5.2862,5.2797,5.2793,5.2806,5.2878,5.2909,5.2918,5.306,5.2935,5.2942,5.2947,5.295,5.3317,5.3322,0,0,0,0,0,0,5.2617,5.2633,5.2818,5.2824,5.2684,5.2755,5.2766,5.2814,5.2861,5.2863,5.2809,5.2802,5.2898,5.2909,5.2921,5.3087,5.2944,5.2951,5.2956,5.3312,5.3318,5.3324,0,0,0,0,0,0,5.2611,5.2634,5.2814,5.2728,5.2749,5.2765,5.2819,5.2819,5.2849,5.287,5.2871,5.2839,5.2895,5.291,5.3019,5.309,5.2955,5.2962,5.3306,5.3314,5.3321,5.3422,0,0,0,0,0,0,5.2604,5.2632,5.2688,5.273,5.2754,5.2914,5.2823,5.2824,5.2864,5.2855,5.2898,5.29,5.2892,5.3008,5.3027,5.3098,5.2968,5.33,5.331,5.3319,5.3412,5.3432,5.3449,0,0,0,0,0,5.2596,5.2711,5.2691,5.2714,5.2824,5.2918,5.2932,5.2922,5.287,5.2925,5.2938,5.2899,5.3079,5.302,5.3041,5.3115,5.3296,5.3307,5.3318,5.3404,5.3428,5.3448,0,0,0,0,0,0,5.2674,5.2716,5.2694,5.2827,5.287,5.2906,5.2975,5.2948,5.3004,5.2993,5.2977,5.2987,5.3101,5.3119,5.3052,5.3253,5.3179,5.3195,5.3237,5.326,5.3278,5.327,5.2975,0,0,0,0,0,5.2708,5.2783,5.2814,5.2928,5.2951,5.296,5.3,5.2989,5.3031,5.3048,5.3069,5.311,5.3175,5.3219,5.328,5.3415,5.3422,5.3476,5.3495,5.3509,5.3523,5.3594,5.3618,5.336,5.336,5.336,0,0,5.2776,5.2808,5.2856,5.2945,5.2976,5.3052,5.2975,5.3058,5.3113,5.306,5.3165,5.3182,5.3226,5.3348,5.3403,5.3366,5.3596,5.3524,5.3535,5.3541,5.3608,5.3632,5.3654,5.3368,5.3367,5.3366,0,0,5.2939,5.2972,5.307,5.3104,5.3154,5.3159,5.3183,5.3224,5.3234,5.334,5.3301,5.3365,5.3479,5.3511,5.3543,5.3719,5.3684,5.3739,5.3833,5.3903,5.3923,5.3941,5.4002,5.4025,5.3753,5.3753,5.3753,0,5.3017,5.3132,5.3123,5.321,5.3249,5.3207,5.3305,5.3337,5.3404,5.3431,5.339,5.3531,5.3558,5.3687,5.373,5.3757,5.3782,5.3733,5.3922,5.3939,5.3956,5.4014,5.4037,5.3759,5.3758,5.3758,5.3757,0,5.3225,5.3305,5.3378,5.3446,5.3493,5.3585,5.3588,5.3636,5.3621,5.363,5.3737,5.3768,5.3834,5.3864,5.385,5.3991,5.3967,5.3924,5.3849,5.3987,5.4041,5.4063,5.3768,5.3766,5.3764,5.3762,0,0,5.3439,5.3502,5.3529,5.3559,5.3611,5.3672,5.3761,5.3828,5.387,5.3917,5.3989,5.4087,5.4048,5.4084,5.4072,5.4134,5.4269,5.4083,5.4084,5.4115,5.4425,5.4456,5.4482,5.4248,5.4252,5.4255,5.4421,0,5.3604,5.3762,5.3757,5.3903,5.3976,5.3937,5.4014,5.4053,5.4064,5.4125,5.4135,5.4204,5.4148,5.4169,5.4228,5.424,5.4331,5.4228,5.4312,5.4315,5.4302,5.4511,5.4544,5.4699,5.4442,5.4446,5.4448,0,5.3818,5.3875,5.4029,5.4071,5.4101,5.4171,5.4232,5.4292,5.4334,5.4337,5.4378,5.4357,5.4444,5.4368,5.4487,5.4418,5.4451,5.4463,5.4468,5.4474,5.4389,5.4521,5.4748,5.4771,5.4482,5.4479,5.4477,0,5.3957,5.4072,5.4179,5.4206,5.4258,5.4307,5.433,5.4369,5.441,5.4462,5.4488,5.455,5.4583,5.463,5.4625,5.457,5.4745,5.4669,5.4748,5.4748,5.4785,5.4783,5.5019,5.481,5.4809,5.4809,5.4808,0,5.4141,5.4236,5.4243,5.4308,5.4413,5.4405,5.4509,5.4526,5.4561,5.4627,5.4597,5.4659,5.4649,5.4711,5.4707,5.4806,5.4821,5.4824,5.4822,5.4826,5.4826,5.4847,5.4836,5.4815,5.4814,5.4812,5.4811,0,5.4314,5.4322,5.4436,5.4476,5.4488,5.4564,5.4596,5.4657,5.4665,5.475,5.4769,5.4781,5.4852,5.4852,5.4933,5.493,5.505,5.5036,5.5037,5.5034,5.5112,5.5104,5.537,5.5403,5.5173,5.5175,5.5177,0,5.443,5.4503,5.4552,5.4595,5.4622,5.4693,5.4735,5.4729,5.4774,5.4828,5.4882,5.4951,5.5006,5.5121,5.5135,5.5196,5.5183,5.5271,5.5191,5.5194,5.5182,5.5178,5.5184,5.5286,5.5289,5.5291,5.5293,0,5.4635,5.4636,5.47,5.4765,5.4817,5.4868,5.4914,5.4951,5.495,5.5001,5.5075,5.5118,5.5201,5.5269,5.5329,5.5349,5.5321,5.5318,5.534,5.5344,5.5342,5.5343,5.5078,5.5312,5.531,5.5309,5.5308,5.5307,5.4783,5.4845,5.489,5.4961,5.4996,5.504,5.51,5.5116,5.5179,5.5248,5.524,5.5322,5.5361,5.5438,5.5464,5.5527,5.5495,5.5526,5.5534,5.5541,5.555,5.5333,5.5537,5.5537,5.5536,5.5536,5.5535,0,5.4985,5.5012,5.5078,5.5146,5.5202,5.5173,5.5222,5.527,5.5344,5.5384,5.544,5.5524,5.559,5.561,5.5673,5.5719,5.5707,5.5735,5.5731,5.5736,5.5575,5.555,5.5744,5.5744,5.5744,5.5744,5.5744,5.5744,5.5097,5.5202,5.5208,5.5329,5.5354,5.5436,5.5467,5.5507,5.5539,5.5636,5.5691,5.5705,5.5736,5.5802,5.586,5.5864,5.5888,5.5922,5.592,5.5769,5.5748,5.5728,5.5704,5.5928,5.5928,5.6077,5.6078,5.6079]}]]